When you browse on this site, cookies collect data to enhance your experience and personalize the content and advertising you see.
Visit our Privacy Policy to learn more. By continuing to use the site, you agree to this use of cookies and data.
  • en France
  • Liste des pays
  • À 7 jours
  • Température de l'eau
  • Carte météo
  • Widgets météo
  • user-avatar
    Se connecter

    Météo par heure à Tebessa

    Ce jour, 1 Juin, Lundi

    Heure Température Précipitation Vent Pression Humidité
    00:00 +20°C° 0 mm 2 m/s 685 mmHg 59%
    01:00 +20°C° 0 mm 2 m/s 684 mmHg 66%
    02:00 +19°C° 0.2 mm 2 m/s 684 mmHg 70%
    03:00 +19°C° 0.2 mm 1 m/s 684 mmHg 75%
    04:00 +19°C° 0.2 mm 1 m/s 683 mmHg 79%
    05:00 +19°C° 0.7 mm 1 m/s 684 mmHg 78%
    06:00 +20°C° 0.7 mm 1 m/s 684 mmHg 76%
    07:00 +19°C° 0 mm 2 m/s 684 mmHg 73%
    08:00 +21°C° 0.4 mm 2 m/s 685 mmHg 67%
    09:00 +23°C° 0.4 mm 2 m/s 685 mmHg 61%
    10:00 +25°C° 0.4 mm 1 m/s 686 mmHg 55%
    11:00 +26°C° 0.1 mm 2 m/s 686 mmHg 51%
    12:00 +27°C° 0.1 mm 3 m/s 685 mmHg 48%
    13:00 +28°C° 0.1 mm 3 m/s 685 mmHg 44%
    14:00 +28°C° 1.1 mm 4 m/s 685 mmHg 46%
    15:00 +27°C° 1.1 mm 4 m/s 684 mmHg 49%
    16:00 +27°C° 1.1 mm 5 m/s 684 mmHg 52%
    17:00 +25°C° 3.9 mm 4 m/s 684 mmHg 59%
    18:00 +22°C° 3.9 mm 3 m/s 684 mmHg 66%
    19:00 +20°C° 3.9 mm 2 m/s 684 mmHg 73%
    20:00 +20°C° 1.2 mm 2 m/s 684 mmHg 72%
    21:00 +20°C° 1.2 mm 2 m/s 685 mmHg 72%
    22:00 +20°C° 1.2 mm 2 m/s 686 mmHg 72%
    23:00 +20°C° 0 mm 2 m/s 685 mmHg 74%

    Demain, 2 Juin, Mardi

    Heure Température Précipitation Vent Pression Humidité
    00:00 +21°C° 0 mm 1 m/s 685 mmHg 75%
    01:00 +20°C° 0 mm 1 m/s 685 mmHg 76%
    02:00 +20°C° 0 mm 1 m/s 685 mmHg 78%
    03:00 +19°C° 0 mm 1 m/s 685 mmHg 80%
    04:00 +19°C° 0 mm 1 m/s 685 mmHg 82%
    05:00 +19°C° 0 mm 1 m/s 685 mmHg 80%
    06:00 +19°C° 0 mm 1 m/s 685 mmHg 78%
    07:00 +19°C° 0 mm 1 m/s 685 mmHg 76%
    08:00 +20°C° 0 mm 2 m/s 686 mmHg 65%
    09:00 +21°C° 0 mm 3 m/s 686 mmHg 55%
    10:00 +24°C° 0 mm 3 m/s 687 mmHg 44%
    11:00 +25°C° 0 mm 4 m/s 686 mmHg 39%
    12:00 +26°C° 0 mm 4 m/s 686 mmHg 34%
    13:00 +27°C° 0 mm 4 m/s 686 mmHg 29%
    14:00 +28°C° 0 mm 4 m/s 686 mmHg 28%
    15:00 +29°C° 0 mm 5 m/s 686 mmHg 27%
    16:00 +29°C° 0 mm 5 m/s 685 mmHg 26%
    17:00 +28°C° 0 mm 5 m/s 685 mmHg 29%
    18:00 +27°C° 0 mm 5 m/s 685 mmHg 33%
    19:00 +26°C° 0 mm 5 m/s 684 mmHg 36%
    20:00 +25°C° 0 mm 4 m/s 685 mmHg 40%
    21:00 +24°C° 0 mm 3 m/s 685 mmHg 44%
    22:00 +23°C° 0 mm 2 m/s 685 mmHg 47%
    23:00 +23°C° 0 mm 2 m/s 685 mmHg 51%

    Après-demain, 3 Juin, Mercredi

    Heure Température Précipitation Vent Pression Humidité
    00:00 +22°C° 0 mm 1 m/s 684 mmHg 55%
    01:00 +19°C° 0 mm 0 m/s 684 mmHg 58%
    02:00 +19°C° 0 mm 0 m/s 684 mmHg 59%
    03:00 +19°C° 0 mm 0 m/s 683 mmHg 60%
    04:00 +18°C° 0 mm 0 m/s 683 mmHg 61%
    05:00 +21°C° 0 mm 1 m/s 683 mmHg 57%
    06:00 +22°C° 0 mm 1 m/s 683 mmHg 54%
    07:00 +22°C° 0 mm 1 m/s 683 mmHg 50%
    08:00 +24°C° 0 mm 2 m/s 684 mmHg 46%
    09:00 +25°C° 0 mm 3 m/s 684 mmHg 42%
    10:00 +27°C° 0 mm 4 m/s 685 mmHg 39%
    11:00 +28°C° 0 mm 4 m/s 684 mmHg 35%
    12:00 +29°C° 0 mm 5 m/s 684 mmHg 32%
    13:00 +30°C° 0 mm 5 m/s 684 mmHg 29%
    14:00 +30°C° 0 mm 5 m/s 684 mmHg 28%
    15:00 +30°C° 0 mm 5 m/s 683 mmHg 27%
    16:00 +30°C° 0 mm 4 m/s 683 mmHg 26%
    17:00 +30°C° 0 mm 4 m/s 683 mmHg 29%
    18:00 +29°C° 0 mm 3 m/s 683 mmHg 31%
    19:00 +28°C° 0 mm 3 m/s 682 mmHg 34%
    20:00 +27°C° 0 mm 3 m/s 683 mmHg 37%
    21:00 +26°C° 0 mm 2 m/s 683 mmHg 40%
    22:00 +25°C° 0 mm 2 m/s 683 mmHg 43%
    23:00 +25°C° 0 mm 2 m/s 682 mmHg 44%

    4 Juin, Jeudi

    Heure Température Précipitation Vent Pression Humidité
    00:00 +24°C° 0 mm 3 m/s 682 mmHg 46%
    01:00 +24°C° 0 mm 3 m/s 682 mmHg 48%
    02:00 +22°C° 0 mm 3 m/s 681 mmHg 49%
    03:00 +23°C° 0 mm 2 m/s 681 mmHg 51%
    04:00 +23°C° 0 mm 2 m/s 681 mmHg 52%
    05:00 +23°C° 0 mm 2 m/s 681 mmHg 50%
    06:00 +24°C° 0 mm 2 m/s 681 mmHg 47%
    07:00 +25°C° 0 mm 3 m/s 681 mmHg 45%
    08:00 +27°C° 0 mm 3 m/s 682 mmHg 41%
    09:00 +28°C° 0 mm 3 m/s 682 mmHg 36%
    10:00 +30°C° 0 mm 4 m/s 682 mmHg 31%
    11:00 +32°C° 0 mm 5 m/s 682 mmHg 29%
    12:00 +33°C° 0 mm 6 m/s 682 mmHg 26%
    13:00 +34°C° 0 mm 7 m/s 682 mmHg 24%
    14:00 +35°C° 0 mm 7 m/s 681 mmHg 22%
    15:00 +35°C° 0 mm 8 m/s 681 mmHg 21%
    16:00 +35°C° 0 mm 8 m/s 681 mmHg 20%
    17:00 +35°C° 0 mm 7 m/s 680 mmHg 22%
    18:00 +34°C° 0 mm 5 m/s 680 mmHg 23%
    19:00 +33°C° 0 mm 4 m/s 680 mmHg 25%
    20:00 +29°C° 0 mm 4 m/s 680 mmHg 33%
    21:00 +26°C° 0 mm 5 m/s 680 mmHg 41%
    22:00 +22°C° 0 mm 5 m/s 680 mmHg 48%
    23:00 +21°C° 0 mm 5 m/s 680 mmHg 49%

    5 Juin, Vendredi

    Heure Température Précipitation Vent Pression Humidité
    00:00 +20°C° 0 mm 5 m/s 679 mmHg 50%
    01:00 +19°C° 0 mm 5 m/s 679 mmHg 51%
    02:00 +19°C° 0 mm 5 m/s 679 mmHg 53%
    03:00 +19°C° 0 mm 5 m/s 679 mmHg 56%
    04:00 +17°C° 0 mm 5 m/s 679 mmHg 59%
    05:00 +17°C° 0 mm 5 m/s 680 mmHg 61%
    06:00 +17°C° 0 mm 6 m/s 680 mmHg 63%
    07:00 +17°C° 0 mm 6 m/s 681 mmHg 65%
    08:00 +20°C° 0 mm 7 m/s 681 mmHg 59%
    09:00 +21°C° 0 mm 7 m/s 682 mmHg 53%
    10:00 +23°C° 0 mm 8 m/s 682 mmHg 47%
    11:00 +24°C° 0 mm 8 m/s 683 mmHg 41%
    12:00 +26°C° 0 mm 8 m/s 683 mmHg 36%
    13:00 +27°C° 0 mm 8 m/s 683 mmHg 30%
    14:00 +28°C° 0 mm 8 m/s 683 mmHg 28%
    15:00 +28°C° 0 mm 7 m/s 683 mmHg 27%
    16:00 +28°C° 0 mm 7 m/s 683 mmHg 25%
    17:00 +28°C° 0 mm 7 m/s 683 mmHg 27%
    18:00 +27°C° 0 mm 6 m/s 684 mmHg 29%
    19:00 +26°C° 0 mm 6 m/s 684 mmHg 31%
    20:00 +23°C° 0 mm 5 m/s 684 mmHg 38%
    21:00 +22°C° 0 mm 4 m/s 685 mmHg 46%
    22:00 +20°C° 0 mm 3 m/s 685 mmHg 53%
    23:00 +20°C° 0 mm 2 m/s 685 mmHg 54%

    6 Juin, Samedi

    Heure Température Précipitation Vent Pression Humidité
    00:00 +19°C° 0 mm 2 m/s 685 mmHg 55%
    01:00 +19°C° 0 mm 2 m/s 685 mmHg 57%
    02:00 +19°C° 0 mm 2 m/s 685 mmHg 58%
    03:00 +19°C° 0 mm 1 m/s 685 mmHg 59%
    04:00 +19°C° 0 mm 1 m/s 685 mmHg 60%
    05:00 +20°C° 0 mm 1 m/s 685 mmHg 56%
    06:00 +20°C° 0 mm 1 m/s 686 mmHg 52%
    07:00 +21°C° 0 mm 1 m/s 686 mmHg 49%
    08:00 +22°C° 0 mm 1 m/s 686 mmHg 44%
    09:00 +23°C° 0 mm 2 m/s 687 mmHg 38%
    10:00 +25°C° 0 mm 2 m/s 687 mmHg 33%
    11:00 +26°C° 0 mm 3 m/s 687 mmHg 30%
    12:00 +28°C° 0 mm 4 m/s 687 mmHg 27%
    13:00 +29°C° 0 mm 5 m/s 687 mmHg 23%
    14:00 +30°C° 0 mm 5 m/s 687 mmHg 23%
    15:00 +30°C° 0 mm 5 m/s 687 mmHg 22%
    16:00 +32°C° 0 mm 5 m/s 686 mmHg 22%
    17:00 +30°C° 0 mm 5 m/s 686 mmHg 25%
    18:00 +30°C° 0 mm 5 m/s 686 mmHg 28%
    19:00 +29°C° 0 mm 5 m/s 686 mmHg 31%
    20:00 +28°C° 0 mm 4 m/s 686 mmHg 34%
    21:00 +27°C° 0 mm 4 m/s 686 mmHg 37%
    22:00 +26°C° 0 mm 4 m/s 686 mmHg 40%
    23:00 +26°C° 0 mm 3 m/s 686 mmHg 41%
    Voir plus